Location: Vassar Physics Lab
(41.6843°N, 73.8954°W)
Time: 16:40:02
(UTC-04:00)

CZ-4B DEB - Visible Passes

Search period start: 25 October 2014 00:00
Search period end: 03 November 2014 23:00
Orbit: 844 x 863 km, 98.8° (Epoch: 24 October)

Date Brightness Start Highest point End Pass type
(mag) Time Alt. Az. Time Alt. Az. Time Alt. Az.
25 Oct 6.4 03:33:55 10° NE 03:36:36 22° ENE 03:36:36 22° ENE visible
25 Oct 4.7 05:14:11 10° N 05:18:39 41° NW 05:18:39 41° NW visible
26 Oct 6.7 03:23:20 10° NE 03:25:21 17° ENE 03:25:21 17° ENE visible
26 Oct 4.6 05:03:07 10° N 05:07:25 46° NNW 05:07:25 46° NNW visible
27 Oct 6.9 03:12:54 10° NE 03:14:06 13° ENE 03:14:06 13° ENE visible
27 Oct 4.7 04:52:05 10° N 04:56:10 48° NNW 04:56:10 48° NNW visible
28 Oct 7.2 03:02:46 10° ENE 03:02:51 10° ENE 03:02:51 10° ENE visible
28 Oct 4.9 04:41:06 10° NNE 04:44:54 46° N 04:44:54 46° N visible
28 Oct 5.9 06:24:23 10° NNW 06:26:31 12° WNW 06:26:57 12° WNW visible
29 Oct 5.2 04:30:08 10° NNE 04:33:39 41° NNE 04:33:39 41° NNE visible
29 Oct 5.8 06:12:41 10° NNW 06:15:42 15° WNW 06:15:42 15° WNW visible
30 Oct 5.5 04:19:13 10° NNE 04:22:23 35° NNE 04:22:23 35° NNE visible
30 Oct 5.6 06:01:14 10° NNW 06:04:27 18° NW 06:04:27 18° NW visible
31 Oct 5.8 04:08:21 10° NNE 04:11:08 29° NE 04:11:08 29° NE visible
31 Oct 5.5 05:49:55 10° NNW 05:53:11 22° NW 05:53:11 22° NW visible
01 Nov 6.1 03:57:31 10° NNE 03:59:52 24° NE 03:59:52 24° NE visible
01 Nov 5.4 05:38:41 10° N 05:41:55 25° NW 05:41:55 25° NW visible
02 Nov 6.4 02:46:44 10° NNE 02:48:36 20° NE 02:48:36 20° NE visible
02 Nov 5.3 04:27:30 10° N 04:30:39 27° NNW 04:30:39 27° NNW visible
03 Nov 6.7 02:36:02 10° NE 02:37:20 16° NE 02:37:20 16° NE visible
03 Nov 5.3 04:16:23 10° N 04:19:23 29° NNW 04:19:23 29° NNW visible
